SFR301 FALE-FAOR

Flight info

Callsign SFR301
Flight time 0h 43m
Altitude 38000
Route GEPOM UZ29 UNPOM UNPOM1B
Aircraft B738/M-SDE2E3FGHIRWXY/LB1

Departure

Time 2026-05-07 20:54
Airport King Shaka International Airport (FALE)

Arrival

Time 2026-05-07 21:38
Airport O.R. Tambo International Airport (FAOR)
Time Latitude Longitude Altitude Speed Heading
2026-05-07 20:44 -29.61997 31.10550 295 ft 0 kts 306°
2026-05-07 20:47 -29.62002 31.10557 300 ft 4 kts 306°
2026-05-07 20:47 -29.62017 31.10582 299 ft 4 kts 294°
2026-05-07 20:47 -29.62020 31.10607 298 ft 3 kts 238°
2026-05-07 20:48 -29.62006 31.10628 300 ft 4 kts 217°
2026-05-07 20:48 -29.62002 31.10631 299 ft 0 kts 217°
2026-05-07 20:50 -29.62003 31.10631 299 ft 1 kts 218°
2026-05-07 20:50 -29.62011 31.10623 300 ft 3 kts 218°
2026-05-07 20:51 -29.62033 31.10604 299 ft 5 kts 218°
2026-05-07 20:51 -29.62063 31.10577 295 ft 6 kts 218°
2026-05-07 20:51 -29.62093 31.10550 295 ft 6 kts 217°
2026-05-07 20:51 -29.62132 31.10516 295 ft 9 kts 217°
2026-05-07 20:52 -29.62193 31.10463 295 ft 13 kts 217°
2026-05-07 20:52 -29.62270 31.10442 297 ft 11 kts 140°
2026-05-07 20:52 -29.62315 31.10512 297 ft 11 kts 126°
2026-05-07 20:52 -29.62360 31.10577 298 ft 10 kts 129°
2026-05-07 20:53 -29.62403 31.10641 299 ft 10 kts 126°
2026-05-07 20:53 -29.62453 31.10720 296 ft 13 kts 126°
2026-05-07 20:53 -29.62472 31.10811 298 ft 10 kts 47°
2026-05-07 20:53 -29.62454 31.10825 296 ft 0 kts 35°
2026-05-07 20:54 -29.62436 31.10839 296 ft 16 kts 35°
2026-05-07 20:54 -29.62133 31.11101 300 ft 93 kts 38°
2026-05-07 20:54 -29.61453 31.11691 313 ft 152 kts 36°
2026-05-07 20:54 -29.60598 31.12454 923 ft 156 kts 38°
2026-05-07 20:55 -29.59767 31.13201 1732 ft 152 kts 37°
2026-05-07 20:55 -29.58816 31.13824 2197 ft 171 kts
2026-05-07 20:55 -29.57589 31.13486 2470 ft 201 kts 321°
2026-05-07 20:55 -29.56622 31.12210 2702 ft 221 kts 307°
2026-05-07 20:56 -29.55633 31.10781 2864 ft 237 kts 308°
2026-05-07 20:56 -29.54558 31.09284 3300 ft 246 kts 309°
2026-05-07 20:56 -29.53406 31.07736 3631 ft 263 kts 310°
2026-05-07 20:56 -29.52171 31.06128 4228 ft 272 kts 310°
2026-05-07 20:57 -29.50911 31.04529 5084 ft 273 kts 310°
2026-05-07 20:57 -29.49626 31.02927 5975 ft 273 kts 310°
2026-05-07 20:57 -29.48321 31.01321 6756 ft 279 kts 311°
2026-05-07 20:57 -29.46992 30.99701 7661 ft 278 kts 311°
2026-05-07 20:58 -29.45662 30.98092 8614 ft 278 kts 311°
2026-05-07 20:58 -29.44325 30.96481 9556 ft 279 kts 310°
2026-05-07 20:58 -29.42981 30.94866 10419 ft 284 kts 312°
2026-05-07 20:58 -29.41553 30.93152 10672 ft 310 kts 312°
2026-05-07 20:59 -29.40025 30.91319 10869 ft 334 kts 312°
2026-05-07 20:59 -29.38357 30.89324 11064 ft 357 kts 312°
2026-05-07 20:59 -29.36612 30.87242 11578 ft 366 kts 313°
2026-05-07 20:59 -29.34831 30.85122 12330 ft 370 kts 313°
2026-05-07 21:00 -29.33080 30.83037 13115 ft 372 kts 313°
2026-05-07 21:00 -29.31275 30.80890 13904 ft 376 kts 313°
2026-05-07 21:00 -29.29453 30.78722 14611 ft 379 kts 312°
2026-05-07 21:00 -29.27618 30.76540 15320 ft 382 kts 312°
2026-05-07 21:01 -29.25784 30.74361 16079 ft 384 kts 312°
2026-05-07 21:01 -29.23923 30.72149 16844 ft 386 kts 311°
2026-05-07 21:01 -29.22683 30.70676 17326 ft 388 kts 311°
2026-05-07 21:01 -29.20797 30.68437 18005 ft 391 kts 311°
2026-05-07 21:02 -29.18899 30.66184 18612 ft 394 kts 311°
2026-05-07 21:02 -29.16369 30.63184 19426 ft 396 kts 311°
2026-05-07 21:02 -29.15077 30.61653 19837 ft 397 kts 311°
2026-05-07 21:02 -29.13168 30.59415 20423 ft 399 kts 313°
2026-05-07 21:03 -29.11018 30.57371 20964 ft 406 kts 321°
2026-05-07 21:03 -29.08584 30.55539 21533 ft 408 kts 322°
2026-05-07 21:03 -28.99028 30.48419 23636 ft 414 kts 322°
2026-05-07 21:03 -28.89305 30.41109 25152 ft 423 kts 322°
2026-05-07 21:04 -28.79374 30.33639 26599 ft 432 kts 322°
2026-05-07 21:04 -28.69226 30.26034 27884 ft 439 kts 322°
2026-05-07 21:04 -28.59047 30.18422 29343 ft 435 kts 322°
2026-05-07 21:04 -28.49003 30.10931 31031 ft 427 kts 322°
2026-05-07 21:05 -28.39106 30.03562 32430 ft 421 kts 321°
2026-05-07 21:05 -28.29360 29.96321 33921 ft 415 kts 320°
2026-05-07 21:05 -28.19792 29.89230 35188 ft 407 kts 320°
2026-05-07 21:05 -28.10295 29.82202 36265 ft 406 kts 320°
2026-05-07 21:06 -28.01018 29.75350 37424 ft 399 kts 320°
2026-05-07 21:06 -27.91581 29.68410 38132 ft 400 kts 320°
2026-05-07 21:06 -27.82358 29.61616 38135 ft 401 kts 320°
2026-05-07 21:07 -27.63578 29.47899 38156 ft 402 kts 320°
2026-05-07 21:07 -27.44771 29.34215 38150 ft 403 kts 320°
2026-05-07 21:08 -27.25960 29.20582 38106 ft 401 kts 320°
2026-05-07 21:08 -27.16464 29.13981 35593 ft 404 kts 323°
2026-05-07 21:08 -27.06325 29.08128 32380 ft 413 kts 324°
2026-05-07 21:08 -26.96016 29.02140 28591 ft 421 kts 324°
2026-05-07 21:09 -26.85726 28.96096 25505 ft 408 kts 325°
2026-05-07 21:09 -26.76425 28.90660 24883 ft 352 kts 324°
2026-05-07 21:09 -26.74298 28.89411 24836 ft 337 kts 324°
2026-05-07 21:09 -26.72252 28.88210 24706 ft 327 kts 324°
2026-05-07 21:10 -26.70278 28.87040 24591 ft 315 kts 321°
2026-05-07 21:10 -26.68640 28.85573 24255 ft 303 kts 307°
2026-05-07 21:10 -26.67187 28.83833 23907 ft 312 kts 307°
2026-05-07 21:10 -26.65643 28.81955 23468 ft 343 kts 307°
2026-05-07 21:11 -26.63952 28.79912 23020 ft 372 kts 308°
2026-05-07 21:11 -26.62135 28.77746 22535 ft 386 kts 309°
2026-05-07 21:11 -26.58469 28.73437 21562 ft 377 kts 309°
2026-05-07 21:12 -26.56669 28.71320 21108 ft 374 kts 309°
2026-05-07 21:12 -26.54894 28.69228 20676 ft 373 kts 309°
2026-05-07 21:12 -26.53112 28.67122 20254 ft 372 kts 309°
2026-05-07 21:12 -26.51338 28.65025 19824 ft 372 kts 309°
2026-05-07 21:13 -26.49555 28.62916 19389 ft 372 kts 309°
2026-05-07 21:13 -26.47775 28.60811 18933 ft 373 kts 309°
2026-05-07 21:13 -26.45998 28.58710 18479 ft 372 kts 309°
2026-05-07 21:13 -26.44223 28.56616 17940 ft 371 kts 309°
2026-05-07 21:14 -26.42486 28.54567 17470 ft 365 kts 309°
2026-05-07 21:14 -26.41989 28.53982 17341 ft 363 kts 309°
2026-05-07 21:15 -26.40330 28.52026 16934 ft 357 kts 309°
2026-05-07 21:15 -26.38654 28.50051 16796 ft 344 kts 309°
2026-05-07 21:15 -26.37031 28.48139 16647 ft 334 kts 309°
2026-05-07 21:16 -26.35468 28.46298 16517 ft 329 kts 309°
2026-05-07 21:16 -26.33894 28.44443 16388 ft 332 kts 309°
2026-05-07 21:16 -26.32144 28.42737 16229 ft 341 kts 324°
2026-05-07 21:16 -26.29910 28.41761 16006 ft 355 kts 342°
2026-05-07 21:17 -26.27419 28.41613 15666 ft 361 kts 359°
2026-05-07 21:17 -26.24941 28.41900 15327 ft 356 kts
2026-05-07 21:17 -26.22532 28.42238 14983 ft 351 kts
2026-05-07 21:17 -26.20135 28.42581 14635 ft 345 kts
2026-05-07 21:18 -26.17768 28.42910 14325 ft 340 kts
2026-05-07 21:18 -26.15436 28.43221 13943 ft 337 kts
2026-05-07 21:18 -26.13113 28.43522 13543 ft 333 kts
2026-05-07 21:18 -26.10824 28.43814 13209 ft 329 kts
2026-05-07 21:19 -26.08572 28.44099 12883 ft 325 kts
2026-05-07 21:19 -26.06346 28.44380 12577 ft 320 kts
2026-05-07 21:19 -26.04165 28.44656 12285 ft 310 kts
2026-05-07 21:19 -26.02063 28.44923 12006 ft 299 kts
2026-05-07 21:20 -26.00037 28.45180 11734 ft 288 kts
2026-05-07 21:20 -25.98081 28.45325 11461 ft 273 kts 348°
2026-05-07 21:20 -25.96447 28.44686 11229 ft 251 kts 320°
2026-05-07 21:20 -25.95188 28.43390 10982 ft 241 kts 303°
2026-05-07 21:21 -25.94390 28.41792 10725 ft 235 kts 288°
2026-05-07 21:21 -25.93850 28.40088 10476 ft 234 kts 285°
2026-05-07 21:21 -25.93340 28.38374 10231 ft 232 kts 285°
2026-05-07 21:21 -25.92844 28.36732 10081 ft 222 kts 285°
2026-05-07 21:22 -25.92366 28.35167 9962 ft 208 kts 285°
2026-05-07 21:22 -25.91918 28.33708 9730 ft 199 kts 284°
2026-05-07 21:22 -25.91808 28.32239 9514 ft 189 kts 255°
2026-05-07 21:22 -25.92453 28.31033 9335 ft 187 kts 216°
2026-05-07 21:23 -25.93627 28.30357 9123 ft 194 kts 207°
2026-05-07 21:23 -25.94868 28.29766 8871 ft 195 kts 205°
2026-05-07 21:23 -25.96100 28.29250 8606 ft 188 kts 201°
2026-05-07 21:23 -25.97289 28.28840 8380 ft 180 kts 197°
2026-05-07 21:24 -25.98469 28.28466 8152 ft 171 kts 198°
2026-05-07 21:24 -25.99580 28.28119 7943 ft 160 kts 198°
2026-05-07 21:24 -26.00614 28.27797 7700 ft 150 kts 198°
2026-05-07 21:24 -26.01619 28.27483 7527 ft 152 kts 198°
2026-05-07 21:25 -26.02609 28.27175 7350 ft 150 kts 198°
2026-05-07 21:25 -26.03603 28.26865 7157 ft 146 kts 198°
2026-05-07 21:25 -26.04578 28.26562 6947 ft 147 kts 198°
2026-05-07 21:25 -26.05560 28.26256 6783 ft 146 kts 198°
2026-05-07 21:26 -26.06525 28.25955 6591 ft 146 kts 198°
2026-05-07 21:26 -26.07504 28.25650 6374 ft 148 kts 197°
2026-05-07 21:26 -26.08524 28.25333 6137 ft 156 kts 196°
2026-05-07 21:26 -26.09605 28.25007 5902 ft 164 kts 196°
2026-05-07 21:27 -26.10658 28.24674 5681 ft 162 kts 197°
2026-05-07 21:27 -26.11716 28.24342 5553 ft 150 kts 195°
2026-05-07 21:27 -26.12760 28.24013 5785 ft 173 kts 197°
2026-05-07 21:27 -26.13943 28.23614 6845 ft 182 kts 198°
2026-05-07 21:28 -26.15162 28.23227 7890 ft 184 kts 198°
2026-05-07 21:28 -26.16451 28.22853 8544 ft 203 kts 197°
2026-05-07 21:28 -26.17806 28.22506 8906 ft 198 kts 194°
2026-05-07 21:28 -26.19187 28.22158 9079 ft 208 kts 203°
2026-05-07 21:29 -26.20302 28.21208 8817 ft 206 kts 234°
2026-05-07 21:29 -26.20730 28.19672 8285 ft 219 kts 268°
2026-05-07 21:29 -26.20252 28.18079 8087 ft 227 kts 300°
2026-05-07 21:29 -26.19263 28.16679 8016 ft 233 kts 305°
2026-05-07 21:30 -26.18221 28.15302 7992 ft 238 kts 307°
2026-05-07 21:30 -26.16874 28.14242 7976 ft 245 kts 337°
2026-05-07 21:30 -26.15223 28.14080 8006 ft 236 kts
2026-05-07 21:30 -26.13655 28.14430 7992 ft 222 kts 10°
2026-05-07 21:31 -26.12179 28.14809 8003 ft 216 kts 10°
2026-05-07 21:31 -26.10708 28.15192 7995 ft 217 kts 11°
2026-05-07 21:31 -26.09226 28.15580 8008 ft 221 kts 11°
2026-05-07 21:31 -26.07716 28.15975 8000 ft 223 kts 11°
2026-05-07 21:32 -26.06208 28.16370 7999 ft 223 kts 11°
2026-05-07 21:32 -26.04703 28.16767 7988 ft 221 kts 11°
2026-05-07 21:32 -26.03209 28.17162 7995 ft 219 kts 11°
2026-05-07 21:32 -26.01733 28.17555 7978 ft 215 kts 11°
2026-05-07 21:33 -26.00307 28.17941 7985 ft 209 kts 14°
2026-05-07 21:33 -25.99170 28.18811 7959 ft 200 kts 60°
2026-05-07 21:33 -25.98902 28.20259 8009 ft 190 kts 96°
2026-05-07 21:33 -25.98903 28.21785 8020 ft 211 kts 90°
2026-05-07 21:34 -25.98716 28.23410 7995 ft 212 kts 83°
2026-05-07 21:34 -25.98741 28.24974 7976 ft 193 kts 120°
2026-05-07 21:34 -25.99625 28.25904 7997 ft 170 kts 166°
2026-05-07 21:34 -26.00692 28.26481 7988 ft 171 kts 154°
2026-05-07 21:35 -26.01714 28.26948 8008 ft 150 kts 173°
2026-05-07 21:35 -26.02713 28.26993 7959 ft 139 kts 193°
2026-05-07 21:35 -26.03643 28.26847 7589 ft 136 kts 193°
2026-05-07 21:35 -26.04558 28.26585 7102 ft 137 kts 203°
2026-05-07 21:36 -26.05455 28.26283 6835 ft 134 kts 197°
2026-05-07 21:36 -26.06358 28.26035 6606 ft 133 kts 197°
2026-05-07 21:36 -26.07249 28.25763 6408 ft 133 kts 198°
2026-05-07 21:36 -26.08159 28.25466 6195 ft 138 kts 198°
2026-05-07 21:37 -26.09088 28.25167 6032 ft 139 kts 196°
2026-05-07 21:37 -26.10021 28.24878 5809 ft 142 kts 197°
2026-05-07 21:37 -26.10956 28.24576 5634 ft 144 kts 196°
2026-05-07 21:37 -26.11899 28.24285 5539 ft 133 kts 197°
2026-05-07 21:38 -26.12692 28.24040 5542 ft 103 kts 195°
2026-05-07 21:38 -26.13259 28.23864 5547 ft 69 kts 195°
2026-05-07 21:38 -26.13626 28.23750 5557 ft 47 kts 195°
2026-05-07 21:38 -26.13824 28.23671 5561 ft 19 kts 234°
2026-05-07 21:39 -26.13825 28.23596 5560 ft 0 kts 288°
2026-05-07 21:39 -26.13820 28.23580 5562 ft 5 kts 288°
2026-05-07 21:39 -26.13812 28.23548 5560 ft 0 kts 285°
2026-05-07 21:39 -26.13809 28.23536 5559 ft 3 kts 285°
2026-05-07 21:40 -26.13805 28.23520 5559 ft 0 kts 284°
2026-05-07 21:42 -26.13799 28.23492 5557 ft 8 kts 284°
2026-05-07 21:42 -26.13778 28.23406 5549 ft 13 kts 284°
2026-05-07 21:42 -26.13723 28.23339 5548 ft 10 kts 340°
2026-05-07 21:42 -26.13672 28.23345 5548 ft 0 kts
2026-05-07 21:43 -26.13664 28.23346 5547 ft 3 kts
2026-05-07 21:43 -26.13630 28.23349 5549 ft 7 kts
2026-05-07 21:43 -26.13603 28.23338 5546 ft 0 kts 291°
2026-05-07 21:44 -26.13602 28.23321 5550 ft 4 kts 275°
2026-05-07 21:44 -26.13599 28.23282 5549 ft 2 kts 275°
2026-05-07 21:44 -26.13597 28.23268 5546 ft 2 kts 276°
2026-05-07 21:44 -26.13597 28.23262 5546 ft 0 kts 276°